Regional Weather Roundup
Issued by NWS

Home | Current Version | Previous Version | Graphics & Text | Print | Product List | Glossary On
Versions: 1 2 3 4 5 6 7 8 9 10 11 12 13 14 15 16 17 18 19 20 21 22 23 24 25 26 27 28 29 30 31 32 33 34 35 36 37 38 39 40 41 42 43 44 45 46 47 48 49
000
ASUS45 KBOU 140807
RWRCO

WEATHER ROUNDUP FOR COLORADO
NATIONAL WEATHER SERVICE DENVER/BOULDER CO
200 AM MDT SUN SEP 14 2014

NOTE: "FAIR" INDICATES FEW OR NO CLOUDS BELOW 12000 FEET WITH NO
SIGNIFICANT WEATHER AND/OR OBSTRUCTIONS TO VISIBILITY.

COZ001>005-013-030-031-140900-
...NORTHWEST COLORADO...

CITY           SKY/WX    TMP DP  RH WIND       PRES   REMARKS
CRAIG          CLEAR     43  36  76 CALM      30.18S
HAYDEN         CLEAR     48  32  53 E10       30.20S
MEEKER         CLEAR     47  36  65 SE7       30.21S
MOUNT WERNER   NOT AVBL
STEAMBOAT SPGS CLEAR     47  35  63 CALM      30.23R
WALDEN         CLEAR     41  28  60 SE6       30.27S
$$

COZ006>008-011-140900-
...WEST CENTRAL VALLEYS...

CITY           SKY/WX    TMP DP  RH WIND       PRES   REMARKS
GRAND JUNCTION CLEAR     59  34  39 E15       30.10R
MONTROSE       CLEAR     56  36  47 SE7       30.20R
EAGLE          CLEAR     45  36  70 CALM      30.27S
RIFLE          CLEAR     49  37  63 CALM      30.18R
DELTA          CLEAR     55  39  55 NE7       30.17R
NUCLA          CLEAR     55  34  44 SE9       30.23S
$$

COZ017>023-064>068-140900-
...SOUTHWEST COLORADO...

CITY           SKY/WX    TMP DP  RH WIND       PRES   REMARKS
DURANGO        CLEAR     51  36  56 NE3       30.28R
CORTEZ         CLEAR     47  39  74 E3        30.21S
PAGOSA SPRINGS NOT AVBL
TELLURIDE      CLEAR     46  30  53 SE5       30.41S
WOLF CREEK PAS CLEAR     37  32  81 SW14G20   30.59S
$$

COZ009-010-012-014-032>034-037-058>063-140900-
...CENTRAL COLORADO...

CITY           SKY/WX    TMP DP  RH WIND       PRES   REMARKS
ASPEN          CLEAR     44  30  57 SW7       30.31S
BUENA VISTA    CLEAR     40  27  60 W3        30.35S
COPPER MTN     CLEAR     45  18  33 SW13G23   30.55S
BERTHOUD PASS  FAIR      37  36  93 W18G36    30.56S
COTTONWOOD PAS CLEAR     52  23  32 CALM      30.44S
GUNNISON       CLEAR     41  30  65 CALM      30.37R
KREMMLING      CLEAR     37  32  81 CALM      30.30R
LEADVILLE      CLEAR     35  22  58 CALM      30.43S
MONARCH PASS   CLEAR     41  21  45 SW15      30.66S
SALIDA         CLEAR     49  31  49 CALM      30.40R
SUNLIGHT       CLEAR     45  27  49 CALM      30.49S
WILKERSON PASS NOT AVBL
$$

COZ069>075-140900-
...SAN LUIS VALLEY/SANGRE DE CRISTO MOUNTAINS...

CITY           SKY/WX    TMP DP  RH WIND       PRES   REMARKS
ALAMOSA        PTCLDY    43  35  73 SE3       30.32R
LA VETA PASS   NOT AVBL
SAGUACHE       NOT AVBL
$$

COZ035-036-038>040-140900-
...NORTHERN COLORADO FRONT RANGE...

CITY           SKY/WX    TMP DP  RH WIND       PRES   REMARKS
DENVER INTL AP CLEAR     52  41  66 SW9       30.14F
DMNS CITY PARK   N/A     51  43  75 S3        30.13F
AURORA         PTCLDY    49  41  73 S9        30.16F
FRONT RANGE AP CLEAR     50  43  76 S7        30.15F
ERIE MUNI ARPT CLEAR     47  43  87 CALM      30.13F
BOULDER MUN AP CLEAR     52  41  66 CALM      30.13S
CENTENNIAL     PTCLDY    51  41  68 S7        30.16F
BROOMFIELD     CLEAR     54  41  62 S3        30.15F
FORT COLLINS   CLEAR     48  41  76 CALM      30.14S
LONGMONT       CLEAR     50  42  75 W3        30.15S
$$

COZ041-046-047-076>085-087-088-140900-
...PIKES PEAK/PALMER DIVIDE AND SOUTHERN FOOTHILLS...

CITY           SKY/WX    TMP DP  RH WIND       PRES   REMARKS
COLO. SPRINGS  PTCLDY    46  36  68 NE8       30.23S
A. F. ACADEMY  PTCLDY    42  35  76 N9        30.24S
ELLICOTT       NOT AVBL
FALCON         PTCLDY    42  33  70 CALM      30.26F
FORT CARSON    CLOUDY    49  36  59 NW10      30.20F
LIMON          CLEAR     40  40 100 N3        30.19S
MONUMENT HILL  CLEAR     43  30  61 S7        30.23F
TRINIDAD       CLEAR     54  47  77 W7        30.19S
$$

COZ042>045-048>051-090-091-140900-
...NORTHEAST COLORADO...

CITY           SKY/WX    TMP DP  RH WIND       PRES   REMARKS
GREELEY ARPT   PTCLDY    43  36  75 NW5       30.12S
AKRON          CLEAR     48  46  93 SE7       30.14F
BURLINGTON     CLEAR     49  47  93 S9        30.14F
WRAY           CLEAR    N/A N/A N/A NE3       30.15S
STERLING       CLEAR     50  48  93 CALM      30.11F
HOLYOKE        CLEAR     43  41  93 SE5       30.14F FOG
FORT MORGAN    CLEAR     46  44  91 E3        30.12F
$$

COZ086-089-092>099-140900-
...SOUTHEAST COLORADO...

CITY           SKY/WX    TMP DP  RH WIND       PRES   REMARKS
PUEBLO         PTCLDY    51  41  68 SW8       30.15S
LA JUNTA       PTCLDY    53  51  93 E3        30.10F
LAMAR          CLEAR     52  51  97 E9        30.09F FOG
SPRINGFIELD      N/A     53  51  93 E3        30.13F
$$



USA.gov is the U.S. government's official web portal to all federal, state and local government web resources and services.